Site-Specific Forecast Table for Stillwater
(NFDRS Fuel Model T - Tallgrass with brush)
DATE TIME TAIR RELH WSPD RAIN_24H BI SC ERC IC 1-HR 10-HR 100-HR 1000-HR HERB WOODY KBDI
Mon May 29, 2017 11:00 pm CDT 71°F 62% 2 mph 0.00 in. 4 1 3 2% 9% 8% 8% 11% 172% 146% 106
Tue May 30, 2017 12:00 am CDT 70°F 66% 1 mph 0.00 in. 3 1 2 2% 10% 9% 8% 11% 172% 146% 106
Tue May 30, 2017 1:00 am CDT 68°F 70% 1 mph 0.00 in. 3 1 2 2% 10% 9% 8% 11% 172% 146% 106
Tue May 30, 2017 2:00 am CDT 66°F 75% 1 mph 0.00 in. 3 1 1 1% 11% 10% 9% 11% 172% 146% 106
Tue May 30, 2017 3:00 am CDT 64°F 80% 2 mph 0.00 in. 2 1 1 1% 13% 11% 9% 11% 172% 146% 106
Tue May 30, 2017 4:00 am CDT 62°F 86% 3 mph 0.00 in. 1 0 0 0% 14% 13% 9% 11% 172% 146% 106
Tue May 30, 2017 5:00 am CDT 62°F 87% 2 mph 0.00 in. 0 0 0 0% 16% 14% 9% 11% 172% 146% 106
Tue May 30, 2017 6:00 am CDT 62°F 87% 2 mph 0.00 in. 0 0 0 0% 17% 15% 10% 11% 172% 146% 106
Tue May 30, 2017 7:00 am CDT 62°F 88% 2 mph 0.00 in. 0 0 0 0% 17% 15% 10% 11% 172% 146% 106
Tue May 30, 2017 8:00 am CDT 63°F 84% 2 mph 0.00 in. 0 0 0 0% 17% 16% 10% 11% 172% 146% 106
Tue May 30, 2017 9:00 am CDT 65°F 80% 4 mph 0.00 in. 0 0 0 0% 16% 16% 10% 11% 172% 146% 106
Tue May 30, 2017 10:00 am CDT 67°F 75% 6 mph 0.00 in. 0 0 0 0% 14% 16% 10% 11% 172% 146% 106
Tue May 30, 2017 11:00 am CDT 68°F 73% 8 mph 0.00 in. 2 2 0 1% 13% 16% 10% 11% 172% 146% 106
Tue May 30, 2017 12:00 pm CDT 69°F 71% 11 mph 0.00 in. 4 4 1 3% 12% 15% 10% 11% 172% 146% 106
Tue May 30, 2017 1:00 pm CDT 70°F 70% 13 mph 0.00 in. 6 5 1 4% 11% 15% 10% 10% 172% 146% 106
Tue May 30, 2017 2:00 pm CDT 72°F 68% 11 mph 0.00 in. 7 5 1 4% 10% 14% 9% 10% 172% 146% 106
Tue May 30, 2017 3:00 pm CDT 73°F 66% 10 mph 0.00 in. 7 5 1 5% 10% 13% 9% 10% 172% 146% 106
Tue May 30, 2017 4:00 pm CDT 75°F 64% 11 mph 0.00 in. 8 5 2 6% 9% 12% 9% 10% 172% 146% 106
Tue May 30, 2017 5:00 pm CDT 74°F 67% 10 mph 0.00 in. 8 5 2 6% 9% 12% 9% 10% 172% 146% 112
Tue May 30, 2017 6:00 pm CDT 73°F 69% 10 mph 0.00 in. 8 4 2 5% 9% 11% 9% 10% 172% 146% 112
DATE TIME TAIR RELH WSPD RAIN_24H BI SC ERC IC 1-HR 10-HR 100-HR 1000-HR HERB WOODY KBDI
Tue May 30, 2017 7:00 pm CDT 72°F 72% 9 mph 0.00 in. 7 4 2 4% 10% 11% 9% 11% 172% 146% 112
Tue May 30, 2017 8:00 pm CDT 69°F 79% 8 mph 0.00 in. 6 3 1 3% 11% 11% 9% 11% 172% 146% 112
Tue May 30, 2017 9:00 pm CDT 66°F 86% 6 mph 0.00 in. 3 1 1 1% 13% 12% 10% 11% 172% 146% 112
Tue May 30, 2017 10:00 pm CDT 63°F 93% 4 mph 0.00 in. 0 0 0 0% 16% 13% 10% 11% 172% 146% 112
Tue May 30, 2017 11:00 pm CDT 62°F 95% 4 mph 0.00 in. 0 0 0 0% 21% 14% 10% 11% 172% 146% 112
Wed May 31, 2017 12:00 am CDT 61°F 96% 4 mph 0.00 in. 0 0 0 0% 25% 14% 10% 11% 172% 146% 112
Wed May 31, 2017 1:00 am CDT 60°F 98% 4 mph 0.00 in. 0 0 0 0% 29% 14% 10% 11% 172% 146% 112
Wed May 31, 2017 2:00 am CDT 58°F 98% 3 mph 0.00 in. 0 0 0 0% 31% 15% 10% 11% 172% 146% 112
Wed May 31, 2017 3:00 am CDT 56°F 97% 2 mph 0.00 in. 0 0 0 0% 32% 15% 10% 11% 172% 146% 112
Wed May 31, 2017 4:00 am CDT 55°F 97% 2 mph 0.00 in. 0 0 0 0% 32% 15% 10% 11% 172% 146% 112
Wed May 31, 2017 5:00 am CDT 54°F 97% 2 mph 0.00 in. 0 0 0 0% 32% 15% 11% 11% 172% 146% 112
Wed May 31, 2017 6:00 am CDT 53°F 97% 2 mph 0.00 in. 0 0 0 0% 33% 15% 11% 11% 172% 146% 112
Wed May 31, 2017 7:00 am CDT 52°F 97% 2 mph 0.00 in. 0 0 0 0% 31% 16% 11% 11% 172% 146% 112
Wed May 31, 2017 8:00 am CDT 58°F 92% 3 mph 0.00 in. 0 0 0 0% 26% 16% 11% 11% 172% 146% 112
Wed May 31, 2017 9:00 am CDT 64°F 87% 5 mph 0.00 in. 0 0 0 0% 20% 15% 11% 10% 172% 146% 112
Wed May 31, 2017 10:00 am CDT 70°F 83% 6 mph 0.00 in. 0 0 0 0% 16% 15% 10% 10% 172% 146% 112
Wed May 31, 2017 11:00 am CDT 75°F 73% 6 mph 0.00 in. 3 1 1 1% 13% 14% 10% 10% 172% 146% 112
Wed May 31, 2017 12:00 pm CDT 80°F 63% 6 mph 0.00 in. 5 2 1 3% 11% 13% 10% 10% 172% 146% 112
Wed May 31, 2017 1:00 pm CDT 85°F 53% 6 mph 0.00 in. 7 3 2 5% 9% 11% 10% 10% 172% 146% 112
Wed May 31, 2017 2:00 pm CDT 86°F 50% 8 mph 0.00 in. 9 4 3 8% 7% 10% 9% 10% 172% 146% 112
DATE TIME TAIR RELH WSPD RAIN_24H BI SC ERC IC 1-HR 10-HR 100-HR 1000-HR HERB WOODY KBDI
Wed May 31, 2017 3:00 pm CDT 87°F 47% 10 mph 0.00 in. 11 5 3 10% 7% 10% 9% 10% 172% 146% 112
Wed May 31, 2017 4:00 pm CDT 87°F 43% 12 mph 0.00 in. 12 6 3 12% 6% 9% 9% 10% 172% 146% 112
Wed May 31, 2017 5:00 pm CDT 85°F 48% 12 mph 0.00 in. 12 6 4 12% 6% 8% 9% 10% 172% 146% 123
Wed May 31, 2017 6:00 pm CDT 83°F 52% 11 mph 0.00 in. 12 6 3 11% 6% 8% 9% 10% 172% 146% 123
Wed May 31, 2017 7:00 pm CDT 82°F 56% 11 mph 0.00 in. 11 5 3 9% 7% 8% 9% 10% 172% 146% 123
Wed May 31, 2017 8:00 pm CDT 78°F 65% 9 mph 0.00 in. 9 4 3 7% 8% 9% 9% 10% 172% 146% 123
Wed May 31, 2017 9:00 pm CDT 74°F 74% 8 mph 0.00 in. 8 3 2 5% 10% 9% 10% 10% 172% 146% 123
Wed May 31, 2017 10:00 pm CDT 70°F 84% 7 mph 0.00 in. 5 2 1 2% 12% 10% 10% 10% 172% 146% 123
Wed May 31, 2017 11:00 pm CDT 69°F 86% 7 mph 0.00 in. 2 1 1 1% 14% 12% 10% 10% 172% 146% 123
Thu Jun 01, 2017 12:00 am CDT 68°F 88% 7 mph 0.00 in. 0 0 0 0% 16% 13% 10% 10% 172% 146% 123
Thu Jun 01, 2017 1:00 am CDT 67°F 90% 7 mph 0.00 in. 0 0 0 0% 17% 14% 10% 10% 172% 146% 123
Thu Jun 01, 2017 2:00 am CDT 66°F 89% 7 mph 0.00 in. 0 0 0 0% 19% 15% 10% 10% 172% 146% 123
Thu Jun 01, 2017 3:00 am CDT 65°F 88% 8 mph 0.00 in. 0 0 0 0% 19% 16% 11% 10% 172% 146% 123
Thu Jun 01, 2017 4:00 am CDT 65°F 87% 9 mph 0.00 in. 0 0 0 0% 19% 17% 11% 10% 172% 146% 123
Thu Jun 01, 2017 5:00 am CDT 65°F 88% 8 mph 0.00 in. 0 0 0 0% 19% 17% 11% 10% 172% 146% 123
Thu Jun 01, 2017 6:00 am CDT 65°F 89% 7 mph 0.00 in. 0 0 0 0% 19% 18% 11% 10% 172% 146% 123
Thu Jun 01, 2017 7:00 am CDT 65°F 90% 7 mph 0.00 in. 0 0 0 0% 19% 19% 11% 10% 172% 146% 123
Thu Jun 01, 2017 8:00 am CDT 69°F 83% 9 mph 0.00 in. 0 0 0 0% 17% 19% 11% 10% 172% 146% 123
Thu Jun 01, 2017 9:00 am CDT 74°F 76% 11 mph 0.00 in. 0 0 0 0% 15% 18% 11% 10% 172% 146% 123
Thu Jun 01, 2017 10:00 am CDT 78°F 70% 13 mph 0.00 in. 3 3 0 2% 13% 17% 11% 10% 172% 146% 123
DATE TIME TAIR RELH WSPD RAIN_24H BI SC ERC IC 1-HR 10-HR 100-HR 1000-HR HERB WOODY KBDI
Thu Jun 01, 2017 11:00 am CDT 81°F 66% 13 mph 0.00 in. 6 5 1 4% 11% 16% 11% 10% 172% 146% 123
Thu Jun 01, 2017 12:00 pm CDT 83°F 63% 13 mph 0.00 in. 8 6 1 6% 10% 15% 11% 10% 172% 146% 123
Thu Jun 01, 2017 1:00 pm CDT 85°F 59% 13 mph 0.00 in. 9 7 2 8% 8% 14% 10% 10% 172% 146% 123
Thu Jun 01, 2017 2:00 pm CDT 85°F 59% 13 mph 0.00 in. 10 7 2 9% 8% 13% 10% 10% 172% 146% 123
Thu Jun 01, 2017 3:00 pm CDT 85°F 58% 13 mph 0.00 in. 11 7 2 10% 7% 12% 10% 10% 172% 146% 123
Thu Jun 01, 2017 4:00 pm CDT 84°F 57% 13 mph 0.00 in. 11 7 3 10% 7% 11% 10% 10% 172% 146% 123
Thu Jun 01, 2017 5:00 pm CDT 83°F 60% 13 mph 0.00 in. 11 7 3 10% 8% 11% 10% 10% 172% 146% 133
Thu Jun 01, 2017 6:00 pm CDT 82°F 63% 14 mph 0.00 in. 11 7 2 9% 8% 10% 10% 10% 172% 146% 133
Thu Jun 01, 2017 7:00 pm CDT 82°F 66% 14 mph 0.00 in. 11 7 2 8% 9% 11% 10% 10% 172% 146% 133
Thu Jun 01, 2017 8:00 pm CDT 78°F 72% 14 mph 0.00 in. 10 7 2 6% 9% 11% 10% 10% 172% 146% 133
Thu Jun 01, 2017 9:00 pm CDT 74°F 78% 13 mph 0.00 in. 8 6 1 5% 11% 11% 10% 10% 172% 146% 133
Thu Jun 01, 2017 10:00 pm CDT 70°F 84% 13 mph 0.00 in. 5 4 1 2% 13% 12% 11% 10% 172% 146% 133
Thu Jun 01, 2017 11:00 pm CDT 69°F 89% 11 mph 0.00 in. 0 0 0 0% 15% 14% 11% 10% 172% 146% 133
Fri Jun 02, 2017 12:00 am CDT 68°F 93% 9 mph 0.00 in. 0 0 0 0% 18% 14% 11% 10% 172% 146% 133
Fri Jun 02, 2017 1:00 am CDT 67°F 98% 8 mph 0.00 in. 0 0 0 0% 24% 15% 11% 10% 172% 146% 133
Fri Jun 02, 2017 2:00 am CDT 67°F 98% 9 mph 0.00 in. 0 0 0 0% 28% 15% 11% 10% 172% 146% 133
Fri Jun 02, 2017 3:00 am CDT 68°F 98% 10 mph 0.00 in. 0 0 0 0% 30% 15% 11% 10% 172% 146% 133
Fri Jun 02, 2017 4:00 am CDT 69°F 97% 12 mph 0.00 in. 0 0 0 0% 31% 16% 11% 10% 172% 146% 133
Fri Jun 02, 2017 5:00 am CDT 69°F 97% 13 mph 0.01 in. 0 0 0 0% 85% 26% 14% 12% 172% 146% 133
Fri Jun 02, 2017 6:00 am CDT 70°F 97% 14 mph 0.02 in. 0 0 0 0% 85% 35% 15% 12% 172% 146% 133
DATE TIME TAIR RELH WSPD RAIN_24H BI SC ERC IC 1-HR 10-HR 100-HR 1000-HR HERB WOODY KBDI
Fri Jun 02, 2017 7:00 am CDT 70°F 97% 15 mph 0.04 in. 0 0 0 0% 85% 41% 16% 13% 172% 146% 133